Tracking 30970 objects as of 3-Jul-2025
HD Live streaming from Space Station
objects crossing your sky now

THORAD DELTA 1 DEB

Track THORAD DELTA 1 DEB now!
10-day predictions


NORAD ID: 42619
Int'l Code: 1974-089GL
Perigee: 966.2 km
Apogee: 1,239.6 km
Inclination: 102.0 °
Period: 107.2 minutes
Semi major axis: 7473 km
RCS: Unknown
Launch date: November 15, 1974
Source: United States (US)
Launch site: AIR FORCE WESTERN TEST RANGE (AFWTR)

Note: This is SATELLITE DEBRIS
Your satellite tracking list
ERS 1 DEB
Track 1 satellite(s)




NASA's NSSDC Master Catalog

Two Line Element Set (TLE):
1 42619U 74089GL  25183.75046663  .00001522  00000-0  24842-2 0  9998
2 42619 102.0451 109.8185 0182928 103.6350 287.7592 13.43637521567156
Source of the keplerian elements: AFSPC